Bethel Airport Bethel US
ICAO: PABE
IATA:
Category: Medium
Scheduled Services:

Elevation: 126 ft
TransAlt. 18000 ft.

Airport Communications:
ATIS:119.8
ANCHORAGE CNTR:125.2
CTAF/BETHEL WX:118.7
KENAI RDO:122.65
GND:121.7
TWEB:114.1
NG OPS:124.65
TWR:118.7

PABE Zoom In..

If you have problems with the map follow the link
https://www.worldairports.se/pages/airport.php?
ICAO=PABE

Runways:

(A) RW 01L length 6400 ft width 150 ft
---- / hdg 9

(B) RW 01R length 4000 ft width 75 ft
---- / hdg 10

(C) RW 12 length 1858 ft width 75 ft
---- / hdg 114

(D) RW 19L length 4000 ft width 75 ft
---- / hdg 190

(E) RW 19R length 6400 ft width 150 ft
ILS 111.50 / hdg 189

(F) RW 30 length 1858 ft width 75 ft
---- / hdg 294

Location; PABE
Day. 20 / Time. 20.53 Zulu
* Altimeter: 29.71
* Temperature: 01° c. 33.8°f.
* Wind from: 180° Speed 23 kn with Gusts up to 30 kn.
Dewpoint: -01° c.
Visibility: 10 Statute Miles.
Clouds: Broken 4000 ft.
Clouds: Overcast 5000 ft.

PABE 202053Z 18023G30KT 10SM BKN040 OVC050 01/M01 A2971 RMK AO2 PK WND 17031/2020 SLP063 T00111011 51003


Wind From 180°
Speed 23 kn.

 
 
jpsmedia.com for Web Design worldairports.se 2019   terms of use